Regional Weather Roundup
Issued by NWS

Home | Current Version | Previous Version | Text Only | Print | Product List | Glossary On
Versions: 1 2 3 4 5 6 7 8 9 10 11 12 13 14 15 16 17 18 19 20 21 22 23 24 25 26 27 28 29 30 31 32 33 34 35 36 37 38 39 40 41 42 43 44 45 46 47 48 49 50
071
ASUS44 KJAN 221703
RWRMS

MISSISSIPPI HOURLY WEATHER ROUNDUP
NATIONAL WEATHER SERVICE JACKSON MS
1100 AM CST SAT NOV 22 2014

NOTE: "FAIR: INDICATES FEW OR NO CLOUDS BELOW 12,000 FEET WITH NO
SIGNIFICANT WEATHER AND/OR OBSTRUCTIONS TO VISIBILITY.

MSZ001>002-007>008-010>013-018>021-025>028-034>036-221800-
NORTHWEST MISSISSIPPI

CITY           SKY/WX    TMP DP  RH WIND       PRES   REMARKS
CLARKSDALE     PTSUNNY   59  45  58 SE13      30.22F
CLEVELAND      CLOUDY    59  47  64 SE8       30.20F
GREENWOOD      CLOUDY    66  41  40 S15G23    30.21F
GREENVILLE     PTSUNNY   61  46  57 SE15      30.19F
GRENADA        PTSUNNY   61  43  51 CALM      30.24F
OLIVE BRANCH   PTSUNNY   64  41  42 S17G25    30.22F
OXFORD         FAIR      61  39  44 SE10G17   30.26F
TUNICA         PTSUNNY   59  45  58 S10       30.22F
$$

MSZ003>006-009-014>017-022>024-029>033-037>039-221800-
NORTHEAST MISSISSIPPI

CITY           SKY/WX    TMP DP  RH WIND       PRES   REMARKS
COLUMBUS AFB   MOSUNNY   65  37  35 SE16      30.27F
CORINTH        FAIR      64  34  32 S15       30.26F
GOLDN TRIANGLE MOSUNNY   63  39  42 SE14      30.26F
STARKVILLE     FAIR      63  37  39 S13       30.26F
TUPELO         LGT RAIN  62  39  42 S13       30.26F
$$

MSZ040-058-221800-
CENTRAL MISSISSIPPI

CITY           SKY/WX    TMP DP  RH WIND       PRES   REMARKS
JACKSON INTL   PTSUNNY   66  46  48 SE16      30.23F
JACKSON HAWKNS MOSUNNY   66  46  48 SE15      30.23F
MERIDIAN KEY   PTSUNNY   65  40  39 SE10      30.25F
MERIDIAN NAS     N/A    N/A N/A N/A MISG      30.27F
RAYMOND        FAIR      66  61  82 SE13G21   30.22F
VICKSBURG      PTSUNNY   67  49  52 SE16      30.19F
$$

MSZ059>079-221800-
SOUTH MISSISSIPPI

CITY           SKY/WX    TMP DP  RH WIND       PRES   REMARKS
BROOKHAVEN     FAIR      64  52  63 SE10      30.23F
HATTIESBURG    PTSUNNY   64  44  48 E8        30.26F
MCCOMB         CLOUDY    65  52  62 SE12G17   30.21F
NATCHEZ        PTSUNNY   66  54  63 SE15G21   30.19F
PINE BELT      PTSUNNY   64  45  48 E10       30.26F
$$

MSZ080>082-221800-
COASTAL MISSISSIPPI

CITY           SKY/WX    TMP DP  RH WIND       PRES   REMARKS
BAY ST LOUIS   SUNNY     66  52  59 SE9G18    30.22F
BILOXI         MOSUNNY   70  56  59 E16G22    30.22F
PASCAGOULA     MOSUNNY   69  53  56 E10       30.23F
GULFPORT       MOSUNNY   68  55  63 E22       30.22F
$$



USA.gov is the U.S. government's official web portal to all federal, state and local government web resources and services.